Location: Broadmoor
(37.6867°N, 122.4828°W)
Time: 05:50:22
(UTC+00:00)

H-2A R/B - Pass Details

Date: 03 August 2024
Orbit: 731 x 832 km, 98.2° (Epoch: 14 September)

Event Time Altitude Azimuth Distance (km) Brightness Sun altitude
Rises 12:16:15 0° 14° (NNE) 3,167 6.0 -11.3°
Reaches altitude 10° 12:18:32 10° 16° (NNE) 2,245 5.2 -10.9°
Maximum altitude 12:23:28 78° 102° (ESE) 764 2.1 -10.1°
Drops below altitude 10° 12:28:27 10° 189° (S) 2,273 4.1 -9.2°
Sets 12:30:46 0° 191° (S) 3,209 4.8 -8.8°
